Weather History for Sheridan, WY

Change the Weather History Date:

Thursday, January 3, 2013

  Actual Average Record
Temperature  
Mean Temperature 19 °F 23 °F  
Max Temperature 34 °F 36 °F 61 °F (2003)
Min Temperature 4 °F 11 °F -29 °F (1912)
Degree Days  
Heating Degree Days 46 42  
Month to date heating degree days 135 126  
Since 1 July heating degree days 3090 3309  
Cooling Degree Days 0 0  
Month to date cooling degree days 0 0  
Year to date cooling degree days 0 0  
Moisture  
Dew Point 4 °F    
Average Humidity 60    
Maximum Humidity 76    
Minimum Humidity 43    
Precipitation  
Precipitation 0.00 in 0.02 in 0.52 in (1913)
Month to date precipitation T 0.05  
Year to date precipitation T 0.05  
Sea Level Pressure  
Sea Level Pressure 30.34 in    
Wind  
Wind Speed 2 mph (SSW)    
Max Wind Speed 9 mph    
Max Gust Speed 9 mph    
Visibility 10 miles    
Events      
T = Trace of Precipitation, MM = Missing Value Source: NWS Daily Summary

Daily Weather History Graph

Daily Weather History Graph

Search for Another Location

Airport:

Trip Planner

Search our weather history database for the weather conditions in past years. The results will help you decide how hot, cold, wet, or windy it might be!

Date:

Astronomy

Jan. 03, 2013 Rise Set
Actual Time 7:45 AM MST 4:40 PM MST
Civil Twilight 7:11 AM MST 5:13 PM MST
Nautical Twilight 6:35 AM MST 5:50 PM MST
Astronomical Twilight 5:59 AM MST 6:25 PM MST
Moon 11:37 PM MST (1/3) 10:41 AM MST (1/3)
Length of Visible Light 10h 01m
Length of Day
8h 54m
Waning Gibbous, 65% of the Moon is Illuminated
Jan 3
Waning Gibbous
Jan 4
Last Quarter
Jan 11
New
Jan 18
First Quarter
Jan 26
Full

Hourly Weather History & Observations

Time (MST) Temp. Windchill Dew Point Humidity Pressure Visibility Wind Dir Wind Speed Gust Speed Precip Events Conditions
12:53 AM 8.6 °F 2.0 °F -0.4 °F 67% 30.26 in 10.0 mi SW 3.5 mph - N/A   Clear
1:53 AM 7.0 °F 0.1 °F -2.0 °F 67% 30.42 in 10.0 mi SW 3.5 mph - N/A   Clear
2:53 AM 8.1 °F - -0.9 °F 67% 30.40 in 10.0 mi Calm Calm - N/A   Clear
3:53 AM 7.0 °F - -2.9 °F 64% 30.40 in 10.0 mi Calm Calm - N/A   Clear
4:53 AM 8.1 °F -2.0 °F -2.0 °F 64% 30.40 in 10.0 mi South 5.8 mph - N/A   Clear
5:53 AM 8.1 °F -3.2 °F -2.0 °F 64% 30.41 in 10.0 mi South 6.9 mph - N/A   Clear
6:53 AM 7.0 °F -3.3 °F -2.9 °F 64% 30.42 in 10.0 mi South 5.8 mph - N/A   Clear
7:53 AM 10.0 °F - -2.0 °F 58% 30.39 in 10.0 mi Calm Calm - N/A   Clear
8:53 AM 10.0 °F - -0.9 °F 61% 30.40 in 10.0 mi Calm Calm - N/A   Clear
9:53 AM 15.1 °F - 1.0 °F 54% 30.38 in 10.0 mi Calm Calm - N/A   Clear
10:53 AM 21.0 °F 16.2 °F 7.0 °F 55% 30.35 in 10.0 mi NNE 3.5 mph - N/A   Clear
11:53 AM 25.0 °F - 7.0 °F 46% 30.30 in 10.0 mi Calm Calm - N/A   Clear
12:53 PM 28.0 °F 22.8 °F 12.0 °F 51% 30.27 in 10.0 mi North 4.6 mph - N/A   Clear
1:53 PM 32.0 °F - 12.9 °F 45% 30.27 in 10.0 mi Calm Calm - N/A   Clear
2:53 PM 30.0 °F 26.5 °F 15.1 °F 54% 30.29 in 10.0 mi South 3.5 mph - N/A   Clear
3:53 PM 26.1 °F 17.6 °F 15.1 °F 63% 30.30 in 10.0 mi SSW 8.1 mph - N/A   Clear
5:53 PM 17.1 °F - 8.1 °F 68% 30.32 in 10.0 mi Calm Calm - N/A   Clear
6:53 PM 17.1 °F - 7.0 °F 65% 30.32 in 10.0 mi Calm Calm - N/A   Clear
7:53 PM 12.9 °F - 6.1 °F 74% 30.32 in 10.0 mi Calm Calm - N/A   Clear
8:53 PM 18.0 °F 8.7 °F 7.0 °F 62% 30.31 in 10.0 mi South 6.9 mph - N/A   Clear
9:53 PM 14.0 °F - 3.9 °F 64% 30.31 in 10.0 mi Calm Calm - N/A   Clear
10:53 PM 16.0 °F - 5.0 °F 62% 30.28 in 10.0 mi Calm Calm - N/A   Clear
11:53 PM 14.0 °F - 3.9 °F 64% 30.26 in 10.0 mi Calm Calm - N/A   Clear